Regional Weather Roundup
Issued by NWS Grand Forks, ND

Home | Current Version | Previous Version | Text Only | Print | Product List | Glossary Off
Versions: 1 2 3 4 5 6 7 8 9 10 11 12 13 14 15 16 17 18 19 20 21 22 23 24 25 26 27 28 29 30 31 32 33 34 35 36 37 38 39 40 41 42 43 44 45 46 47 48 49 50

000
ASUS43 KFGF 231531
RWRFGF
PRAIRIE TO PINES  WEATHER ROUNDUP
NATIONAL WEATHER SERVICE EASTERN NORTH DAKOTA/GRAND FORKS ND
1000 AM CDT TUE SEP 23 2014

 **SATELLITE DATA USED TO AUGMENT SKY COVER AT AUTOMATED STATIONS**
 *****  WEATHER ACROSS EASTERN NORTH DAKOTA  *****

CITY           SKY/WX    TMP DP  RH WIND       PRES   REMARKS
GRAND FORKS    SUNNY     62  52  69 S14       30.02S
GRAND FRKS AFB SUNNY     62  54  75 S10       30.02S
GRAND FRKS NWS   N/A     64 N/A N/A S9          N/A
DEVILS LAKE    SUNNY     64  52  63 S12       29.96S
FARGO          SUNNY     63  51  65 SE14      30.05S
WAHPETON ARPT  MOSUNNY   63  50  63 SE14      30.09R
$$

 ***** WEATHER ACROSS CENTRAL AND WESTERN NORTH DAKOTA  *****

CITY           SKY/WX    TMP DP  RH WIND       PRES   REMARKS
BISMARCK       PTSUNNY   66  56  70 S14       29.94R
MINOT          SUNNY     62  54  74 S9        29.89R
JAMESTOWN      MOSUNNY   64  54  69 S15       30.00R
MINOT AFB      SUNNY     59  56  88 SE8       29.89R
GARRISON         N/A     61  56  83 S10       29.91R
WILLISTON      SUNNY     61  51  70 CALM      29.87R
DICKINSON      SUNNY     60  55  83 S12       29.88R
HETTINGER      MOSUNNY   61  56  83 SE8       29.92S
$$

 *****  OTHER AIRPORT OBSERVATIONS IN OUR AREA  *****

CITY           SKY/WX    TMP DP  RH WIND       PRES   REMARKS
WALHALLA         N/A     61  55  82 SE12      29.97S
GRAFTON AIRPOR FAIR      63  54  72 S15       30.00F
VALLEY CITY AR FAIR      63  57  82 S15G21    30.03R
CANDO          FAIR      64  55  72 S12       29.96S
CAVALIER APRT  FAIR      59  52  77 S16       29.99S
GWINNER        SUNNY     66  55  68 S14       30.05S
SHEYENNE NWR     N/A     61  53  74 SE8       29.95S
ROLLA          FAIR      63  54  72 S20G25    29.94S
 ***** THE ABOVE OBSERVATIONS ARE NON NWS ARE NOT QUALITY
       CONTROLLED AND MAY MIS-REPORT RAIN FOR SNOW...
$$

  *****  WEATHER ACROSS NORTHERN MINNESOTA  *****

CITY           SKY/WX    TMP DP  RH WIND       PRES   REMARKS
FLAG ISLAND    SUNNY     59  54  82 S10       30.06S
WARROAD        SUNNY     64  55  72 S7        30.07S
ROSEAU         SUNNY     64  55  72 S7        30.05F
HALLOCK        SUNNY     66  52  59 S16       30.00F
THF RVR FALLS  SUNNY     64  54  68 S13       30.06S
BAUDETTE       SUNNY     60  51  72 S7        30.10R
WASKISH        SUNNY     64  54  68 CALM      30.11S
CROOKSTON      SUNNY     64  54  68 S14       30.05S
STEPHEN NDAWN    N/A     63  54  72 S13         N/A
GREENBUSH NDAW   N/A     64  52  63 S12         N/A
$$
  *****  WEATHER ACROSS CENTRAL AND WEST MINNESOTA  *****

CITY           SKY/WX    TMP DP  RH WIND       PRES   REMARKS
FOSSTON        SUNNY     66  52  59 SE10      30.08F
BEMIDJI        SUNNY     62  51  65 S9        30.11F
PARK RAPIDS    SUNNY     59  50  72 S12       30.13S
ELBOW LAKE     FAIR      60  52  74 SE12      30.12R
WADENA         SUNNY     63  52  67 S10       30.13S
DETROIT LAKES  SUNNY     63  54  72 S12G17    30.11S
MOORHEAD       SUNNY     64  54  68 S12       30.07S
FERGUS FALLS   SUNNY     64  48  55 S14       30.10S
MORRIS MN      PTSUNNY   61  54  77 SE13      30.12R
STAPLES        SUNNY     61  50  67 S9        30.15S
$$
  *****  WEATHER ELSEWHERE ACROSS MINNESOTA  *****

CITY           SKY/WX    TMP DP  RH WIND       PRES   REMARKS
DULUTH         SUNNY     64  51  62 SW6       30.21S
INTRNTL FALLS  SUNNY     61  52  72 VRB6      30.14S
ELY            SUNNY     64  52  63 S5        30.20S
CLOQUET        SUNNY     61  52  72 S3        30.22R
WHEATON        PTSUNNY   61  52  72 SE12      30.11R
BRAINERD       SUNNY     61  51  70 S8        30.18R
HIBBING        SUNNY     57  50  77 CALM      30.20S
ALEXANDRIA     SUNNY     61  52  72 S10       30.15S
SAINT CLOUD    SUNNY     62  52  69 S9        30.19S
MINNEAPOLIS    MOSUNNY   62  51  67 SE6       30.23S
$$

  *****  WEATHER ACROSS SOUTH DAKOTA  *****

CITY           SKY/WX    TMP DP  RH WIND       PRES   REMARKS
SIOUX FALLS    LGT RAIN  57  55  93 SE8       30.14F
BROOKINGS      NOT AVBL
WATERTOWN      CLOUDY    58  52  80 S15       30.10R
HURON          HVY RAIN  57  56  96 SE13G26   30.04R FOG
SISSETON         N/A     57  52  83 SE10      30.07R
ABERDEEN       CLOUDY    60  56  86 SE13G20   30.03S
MITCHELL       RAIN      58  57  97 SE16G24   30.07R FOG
PIERRE         CLOUDY    61  55  81 SE16      29.92S
MOBRIDGE       PTSUNNY   65  56  72 SE18G25   29.93R
RAPID CITY     PTSUNNY   64  57  78 CALM      29.94R
$$

  *****  SOME WEATHER IN NEARBY STATES *****

CITY           SKY/WX    TMP DP  RH WIND       PRES   REMARKS
GLASGOW MT     SUNNY     59  48  67 CALM      29.87R
GREAT FALLS MT SUNNY     64  47  53 SW14      30.00R
CHEYENNE WY    MOSUNNY   64  45  49 W10       30.17S
SCOTTSBLUFF NE SUNNY     62  51  67 NW8       30.04R
OMAHA NE       LGT RAIN  62  53  72 SE13      30.19F
DES MOINES IA  CLOUDY    62  52  69 S8        30.27S
DAVENPORT IA   SUNNY     63  45  51 S8        30.34R
CHICAGO IL     SUNNY     60  45  57 W9        30.34S
EAU CLAIRE WI  SUNNY     60  51  72 S5        30.27R
LA CROSSE WI   SUNNY     57  53  86 SE7       30.30R
$$

  *****  SOME NATIONAL WEATHER *****

CITY           SKY/WX    TMP DP  RH WIND       PRES   REMARKS
LA GUARDIA NY  MOSUNNY   61  41  47 N3        30.33R
RALEIGH NC     CLOUDY    59  47  64 NE9       30.33R
ATLANTA GA     MOSUNNY   70  54  56 E15G22    30.22R
NEW ORLEANS LA MOSUNNY   76  59  55 NE10      30.10S
OKLAHOMA CITY  MOSUNNY   67  53  61 S10       30.22S
ALBUQUERQUE NM MOSUNNY   63  58  83 CALM      30.29R
SALT LAKE CITY MOSUNNY   65  55  70 SE9       30.15R
LOS ANGELES CA MOSUNNY   66  63  88 W6        29.99R
BOISE ID       CLOUDY    66  51  58 SE10      30.01S
SEATTLE WA     CLOUDY    59  57  93 S5        29.84F
$$

*** WEATHER ACROSS MANITOBA...SASKATCHEWAN AND ONTARIO ***
                ***ONTARIO***

CITY           SKY/WX    TMP DP  RH WIND       PRES   REMARKS
GERALDTON      FOG      N/A N/A N/A SE3         N/A  VSB 1
THUNDER BAY    MOSUNNY   64  52  63 CALM      30.19R
SIOUX LOOKOUT  SUNNY     63  52  67 S6        30.13R
TORONTO        MOSUNNY   66  50  55 W10       30.28R
BIG TROUT LK   CLOUDY    50  46  87 S16G22    30.04F FOG
PICKLE LAKE    MOSUNNY   59  52  77 SE7       30.10S
DRYDEN         SUNNY     61  52  72 S10       30.12F
KENORA         SUNNY     61  50  67 S12       30.09S
$$
                *** MANITOBA***

CITY           SKY/WX    TMP DP  RH WIND       PRES   REMARKS
BRANDON        SUNNY     59  52  77 SE8       29.91
DAUPHIN        SUNNY     66  54  63 N2        29.85F
ISLAND LAKE    MOSUNNY   61  50  67 S6        29.89F
PILOT MOUND    NOT AVBL
THE PAS        MOSUNNY   63  52  67 S12       29.71F
THOMPSON       PTSUNNY   57  52  82 S7        29.70F
WINNIPEG       SUNNY     63  52  67 S17G28    29.97F
LYNN LAKE      SUNNY     55  50  82 S5        29.63F
CHURCHILL      CLOUDY    41  41 100 S14G26    29.68  FOG
GILLAM         PTSUNNY   55  50  82 S13       29.76F
$$
                ***SASKATCHEWAN***

CITY           SKY/WX    TMP DP  RH WIND       PRES   REMARKS
ESTEVAN        SUNNY     59  54  82 SE5       29.87S
KINDERSLEY     PTSUNNY   54  48  82 CALM      29.81R
LLOYDMINSTER   PTSUNNY   59  46  63 NW13G22   29.80R
PRINCE ALBERT  PTSUNNY   57  54  88 VRB2      29.72
REGINA         MOSUNNY   55  50  82 SE5       29.83
YORKTON        SUNNY     59  50  72 S9        29.83S
N. BATTLEFORD  SUNNY     57  50  77 NW6       29.78R
LA RONGE         N/A     55  48  76 SW5       29.67
SASKATOON      PTSUNNY   57  50  77 SW6       29.76
SWIFT CURRENT  SUNNY     63  46  55 W12       29.83S
$$
NOTE: THESE ARE AUTOMATED STATIONS WITH LIMITED QUALITY CONTROL
      "FAIR" INDICATES FEW OR NO CLOUDS BELOW 12,000 FEET WITH NO
      SIGNIFICANT WEATHER AND/OR OBSTRUCTIONS TO VISIBILITY.
      SKY/WX - SKY CONDITION AND SIGNIFICANT WEATHER.
      TMP - AIR TEMPERATURE.    DP   - DEWPOINT TEMPERATURE.
      RH  - RELATIVE HUMIDITY.  PRES - PRESSURE.
      HX  - HEAT INDEX.         WCI  - WIND CHILL INDEX.
$


USA.gov is the U.S. government's official web portal to all federal, state and local government web resources and services.